Dubuque, IA

6:50 PM CDT on May 27, 2017 (GMT -0500)
Dubuque Regional

Weather History for KDBQ - February, 2013

Change the Weather History Date:

Saturday, February 2, 2013

  Actual Average Record
Temperature  
Mean Temperature 12 °F 20 °F  
Max Temperature 17 °F 28 °F 51 °F (1927)
Min Temperature 7 °F 12 °F -27 °F (1996)
Degree Days  
Heating Degree Days 53 45  
Month to date heating degree days 117 90  
Since 1 July heating degree days 4166 4327  
Cooling Degree Days 0 0  
Month to date cooling degree days 0 0  
Year to date cooling degree days 0 0  
Moisture  
Dew Point 7 °F    
Average Humidity 80    
Maximum Humidity 92    
Minimum Humidity 67    
Precipitation  
Precipitation 0.02 in 0.04 in 1.21 in (1983)
Month to date precipitation 0.12 0.08  
Year to date precipitation 1.86 1.25  
Snow  
Snow 0.60 in 0.30 in - ()
Month to date snowfall 2.0 0.7  
Since 1 July snowfall 27.8 25.3  
Snow Depth 6.00 in    
Sea Level Pressure  
Sea Level Pressure 30.08 in    
Wind  
Wind Speed 8 mph (West)    
Max Wind Speed 20 mph    
Max Gust Speed 24 mph    
Visibility 7 miles    
Events Snow    
T = Trace of Precipitation, MM = Missing Value Source: NWS Daily Summary

Daily Weather History Graph

Daily Weather History Graph

Search for Another Location

Airport or City:

Trip Planner

Search our weather history database for the weather conditions in past years. The results will help you decide how hot, cold, wet, or windy it might be!

Date:

Astronomy

Feb. 02, 2013 Rise Set
Actual Time 7:15 AM CST 5:18 PM CST
Civil Twilight 6:45 AM CST 5:48 PM CST
Nautical Twilight 6:11 AM CST 6:21 PM CST
Astronomical Twilight 5:39 AM CST 6:54 PM CST
Moon No Moon Rise 10:16 AM CST (2/2)
Length of Visible Light 11h 02m
Length of Day
10h 03m
Waning Gibbous, 59% of the Moon is Illuminated
Feb 2
Waning Gibbous
Feb 3
Last Quarter
Feb 10
New
Feb 17
First Quarter
Feb 25
Full

Hourly Weather History & Observations

Time (CST) Temp. Windchill Dew Point Humidity Pressure Visibility Wind Dir Wind Speed Gust Speed Precip Events Conditions
12:05 AM 10.4 °F -2.4 °F 6.8 °F 85% 30.04 in 1.8 mi South 9.2 mph - N/A   Overcast
12:08 AM 10.4 °F -4.1 °F 6.8 °F 85% 30.04 in 3.0 mi South 11.5 mph - N/A   Overcast
12:53 AM 10.9 °F -4.1 °F 8.1 °F 88% 30.09 in 10.0 mi South 12.7 mph - 0.01 in   Overcast
1:43 AM 12.2 °F -1.8 °F 10.4 °F 92% 29.99 in 10.0 mi South 11.5 mph - N/A   Overcast
1:53 AM 12.9 °F -0.9 °F 10.0 °F 88% 30.07 in 10.0 mi South 11.5 mph - N/A   Overcast
2:53 AM 15.8 °F 3.4 °F 12.2 °F 86% 29.97 in 10.0 mi SSW 10.4 mph - N/A   Overcast
3:53 AM 16.0 °F 7.4 °F 12.9 °F 88% 30.04 in 10.0 mi SW 5.8 mph - N/A   Overcast
4:53 AM 17.1 °F 11.7 °F 14.0 °F 88% 30.04 in 10.0 mi NNW 3.5 mph - N/A   Overcast
5:53 AM 16.0 °F 7.4 °F 12.9 °F 88% 30.05 in 10.0 mi NNE 5.8 mph - N/A   Overcast
6:53 AM 12.9 °F -0.2 °F 10.0 °F 88% 30.09 in 9.0 mi North 10.4 mph - N/A   Overcast
7:53 AM 10.9 °F -7.5 °F 8.1 °F 88% 30.11 in 5.0 mi North 19.6 mph 24.2 mph 0.00 in Snow Light Snow
8:19 AM 10.4 °F -5.4 °F 6.8 °F 85% 30.05 in 4.0 mi North 13.8 mph - 0.00 in Snow Light Snow
8:51 AM 10.4 °F -6.6 °F 5.0 °F 79% 30.06 in 3.0 mi North 16.1 mph - 0.00 in Snow Light Snow
8:53 AM 10.0 °F -5.2 °F 5.0 °F 80% 30.14 in 4.0 mi NNE 12.7 mph - 0.00 in Snow Light Snow
9:53 AM 9.0 °F -5.1 °F 3.9 °F 80% 30.15 in 3.0 mi North 10.4 mph - 0.00 in Snow Light Snow
10:11 AM 8.6 °F -3.7 °F 3.2 °F 79% 30.08 in 4.0 mi North 8.1 mph - 0.00 in Snow Light Snow
10:53 AM 10.9 °F 2.9 °F 3.9 °F 73% 30.16 in 10.0 mi North 4.6 mph - 0.00 in   Scattered Clouds
11:53 AM 12.0 °F 1.5 °F 3.9 °F 70% 30.15 in 10.0 mi NNW 6.9 mph - N/A   Partly Cloudy
12:53 PM 12.0 °F 1.5 °F 3.9 °F 70% 30.14 in 10.0 mi North 6.9 mph - N/A   Overcast
1:53 PM 12.9 °F 1.6 °F 3.9 °F 67% 30.14 in 10.0 mi WNW 8.1 mph - N/A   Mostly Cloudy
2:53 PM 12.9 °F 1.6 °F 3.9 °F 67% 30.14 in 10.0 mi WNW 8.1 mph - N/A   Mostly Cloudy
3:53 PM 12.0 °F -1.3 °F 5.0 °F 73% 30.14 in 10.0 mi WNW 10.4 mph - N/A   Overcast
4:53 PM 10.9 °F -0.8 °F 5.0 °F 77% 30.14 in 10.0 mi WNW 8.1 mph - N/A   Mostly Cloudy
5:53 PM 10.0 °F 3.6 °F 3.9 °F 76% 30.14 in 10.0 mi West 3.5 mph - N/A   Mostly Cloudy
6:53 PM 9.0 °F -0.9 °F 3.0 °F 77% 30.14 in 10.0 mi West 5.8 mph - N/A   Clear
7:53 PM 8.1 °F - 3.9 °F 83% 30.12 in 10.0 mi Calm Calm - N/A   Overcast
8:53 PM 9.0 °F 2.4 °F 5.0 °F 84% 30.10 in 10.0 mi SSW 3.5 mph - N/A   Overcast
9:53 PM 10.9 °F 1.4 °F 6.1 °F 81% 30.08 in 3.0 mi South 5.8 mph - N/A   Haze
10:50 PM 10.4 °F 0.8 °F 6.8 °F 85% 29.99 in 2.0 mi South 5.8 mph - N/A   Overcast
10:53 PM 10.9 °F 0.2 °F 7.0 °F 84% 30.06 in 1.8 mi South 6.9 mph - N/A   Overcast
11:08 PM 10.4 °F -0.4 °F 6.8 °F 85% 29.99 in 2.0 mi SSW 6.9 mph - 0.01 in   Overcast
11:31 PM 10.4 °F -0.4 °F 8.6 °F 92% 29.97 in 3.0 mi South 6.9 mph - 0.01 in   Overcast
11:53 PM 10.9 °F -0.8 °F 8.1 °F 88% 30.04 in 3.0 mi South 8.1 mph - 0.01 in   Overcast